| time (UTC) | temp F | wind direction | speed MPH | gust MPH | rain 1hr in | rain 24hr in | rain mn in | humidity % | barometer mb |
| 20260901222217 | 63 | 157 | 3.0 | 5.0 | 0.00 | 0.00 | 0.00 | ||
| 20260901221816 | 64 | 144 | 4.0 | 6.0 | 0.00 | 0.00 | 0.00 | ||
| 20260901221414 | 65 | 133 | 4.0 | 7.0 | 0.00 | 0.00 | 0.00 | ||
| 20260901221014 | 64 | 124 | 3.0 | 6.0 | 0.00 | 0.00 | 0.00 | ||
| 20260901220604 | 63 | 133 | 3.0 | 5.0 | 0.00 | 0.00 | 0.00 | ||
| 20260901220203 | 63 | 135 | 3.0 | 5.0 | 0.00 | 0.00 | 0.00 | ||
| 20260901215802 | 63 | 138 | 4.0 | 5.0 | 0.00 | 0.00 | 0.00 | ||
| 20260901215359 | 64 | 141 | 3.0 | 5.0 | 0.00 | 0.00 | 0.00 | ||
| 20260901214958 | 63 | 144 | 4.0 | 6.0 | 0.00 | 0.00 | 0.00 | ||
| 20260901214557 | 64 | 140 | 3.0 | 4.0 | 0.00 | 0.00 | 0.00 | ||
| 20260901214154 | 63 | 135 | 3.0 | 4.0 | 0.00 | 0.00 | 0.00 | ||
| 20260901213752 | 63 | 135 | 3.0 | 5.0 | 0.00 | 0.00 | 0.00 | ||
| 20260901213351 | 63 | 157 | 3.0 | 5.0 | 0.00 | 0.00 | 0.00 | ||
| 20260901212949 | 63 | 157 | 3.0 | 5.0 | 0.00 | 0.00 | 0.00 | ||
| 20260901212541 | 64 | 157 | 3.0 | 5.0 | 0.00 | 0.00 | 0.00 | ||
| 20260901212138 | 63 | 157 | 3.0 | 5.0 | 0.00 | 0.00 | 0.00 | ||
| 20260901211737 | 63 | 159 | 4.0 | 5.0 | 0.00 | 0.00 | 0.00 | ||
| 20260901211336 | 64 | 143 | 3.0 | 6.0 | 0.00 | 0.00 | 0.00 | ||
| 20260901210935 | 64 | 147 | 3.0 | 4.0 | 0.00 | 0.00 | 0.00 | ||
| 20260901210532 | 63 | 157 | 3.0 | 5.0 | 0.00 | 0.00 | 0.00 | ||
| 20260901210131 | 65 | 140 | 4.0 | 6.0 | 0.00 | 0.00 | 0.00 | ||
| 20260901205730 | 65 | 147 | 3.0 | 5.0 | 0.00 | 0.00 | 0.00 | ||
| 20260901205329 | 65 | 147 | 4.0 | 7.0 | 0.00 | 0.00 | 0.00 | ||
| 20260901204927 | 65 | 157 | 4.0 | 6.0 | 0.00 | 0.00 | 0.00 | ||
| 20260901204518 | 63 | 157 | 3.0 | 5.0 | 0.00 | 0.00 | 0.00 | ||
| 20260901204115 | 63 | 143 | 2.0 | 4.0 | 0.00 | 0.00 | 0.00 | ||
| 20260901203714 | 64 | 153 | 3.0 | 6.0 | 0.00 | 0.00 | 0.00 | ||
| 20260901203313 | 64 | 139 | 2.0 | 4.0 | 0.00 | 0.00 | 0.00 | ||
| 20260901202910 | 64 | 157 | 3.0 | 6.0 | 0.00 | 0.00 | 0.00 | ||
| 20260901202509 | 64 | 135 | 2.0 | 3.0 | 0.00 | 0.00 | 0.00 | ||
| 20260901202106 | 65 | 157 | 2.0 | 3.0 | 0.00 | 0.00 | 0.00 | ||
| 20260901201705 | 65 | 143 | 3.0 | 5.0 | 0.00 | 0.00 | 0.00 | ||
| 20260901201303 | 65 | 153 | 3.0 | 5.0 | 0.00 | 0.00 | 0.00 | ||
| 20260901200901 | 65 | 136 | 3.0 | 4.0 | 0.00 | 0.00 | 0.00 | ||
| 20260901200453 | 64 | 135 | 2.0 | 3.0 | 0.00 | 0.00 | 0.00 | ||
| 20260901200051 | 65 | 138 | 2.0 | 4.0 | 0.00 | 0.00 | 0.00 | ||
| 20260901195649 | 64 | 135 | 2.0 | 3.0 | 0.00 | 0.00 | 0.00 | ||
| 20260901195248 | 63 | 197 | 1.0 | 2.0 | 0.00 | 0.00 | 0.00 | ||
| 20260901194846 | 63 | 202 | 1.0 | 2.0 | 0.00 | 0.00 | 0.00 | ||
| 20260901194445 | 63 | 202 | 1.0 | 2.0 | 0.00 | 0.00 | 0.00 | ||
| 20260901194043 | 63 | 202 | 1.0 | 2.0 | 0.00 | 0.00 | 0.00 | ||
| 20260901193641 | 64 | 213 | 2.0 | 4.0 | 0.00 | 0.00 | 0.00 | ||
| 20260901193240 | 64 | 225 | 2.0 | 2.0 | 0.00 | 0.00 | 0.00 | ||
| 20260901192839 | 63 | 225 | 0.0 | 1.0 | 0.00 | 0.00 | 0.00 | ||
| 20260901192431 | 63 | 225 | 1.0 | 2.0 | 0.00 | 0.00 | 0.00 | ||
| 20260901192027 | 64 | 225 | 1.0 | 2.0 | 0.00 | 0.00 | 0.00 | ||
| 20260901191627 | 65 | 237 | 2.0 | 4.0 | 0.00 | 0.00 | 0.00 | ||
| 20260901191226 | 65 | 248 | 3.0 | 3.0 | 0.00 | 0.00 | 0.00 | ||
| 20260901190824 | 64 | 292 | 2.0 | 2.0 | 0.00 | 0.00 | 0.00 | ||
| 20260901190422 | 64 | 292 | 0.0 | 1.0 | 0.00 | 0.00 | 0.00 | ||
| 20260901190020 | 65 | 292 | 0.0 | 2.0 | 0.00 | 0.00 | 0.00 | ||
| 20260901185619 | 65 | 292 | 0.0 | 1.0 | 0.00 | 0.00 | 0.00 | ||
| 20260901185218 | 65 | 292 | 1.0 | 2.0 | 0.00 | 0.00 | 0.00 | ||
| 20260901184815 | 65 | 292 | 1.0 | 2.0 | 0.00 | 0.00 | 0.00 | ||
| 20260901184407 | 65 | 292 | 1.0 | 2.0 | 0.00 | 0.00 | 0.00 | ||
| 20260901184005 | 65 | 292 | 1.0 | 2.0 | 0.00 | 0.00 | 0.00 | ||
| 20260901183604 | 65 | 298 | 1.0 | 2.0 | 0.00 | 0.00 | 0.00 | ||
| 20260901183203 | 65 | 315 | 0.0 | 1.0 | 0.00 | 0.00 | 0.00 | ||
| 20260901182800 | 65 | 315 | 0.0 | 0.0 | 0.00 | 0.00 | 0.00 | ||
| 20260901182359 | 65 | 315 | 0.0 | 0.0 | 0.00 | 0.00 | 0.00 | ||
| 20260901181957 | 67 | 315 | 0.0 | 0.0 | 0.00 | 0.00 | 0.00 | ||
| 20260901181556 | 68 | 315 | 0.0 | 0.0 | 0.00 | 0.00 | 0.00 | ||
| 20260901181154 | 68 | 315 | 0.0 | 0.0 | 0.00 | 0.00 | 0.00 | ||
| 20260901180752 | 68 | 313 | 0.0 | 2.0 | 0.00 | 0.00 | 0.00 | ||
| 20260901180344 | 68 | 315 | 0.0 | 0.0 | 0.00 | 0.00 | 0.00 | ||
| 20260901175942 | 67 | 315 | 0.0 | 0.0 | 0.00 | 0.00 | 0.00 | ||
| 20260901175540 | 67 | 315 | 0.0 | 0.0 | 0.00 | 0.00 | 0.00 | ||
| 20260901175139 | 68 | 315 | 0.0 | 1.0 | 0.00 | 0.00 | 0.00 | ||
| 20260901174737 | 68 | 315 | 1.0 | 2.0 | 0.00 | 0.00 | 0.00 | ||
| 20260901174336 | 68 | 315 | 1.0 | 2.0 | 0.00 | 0.00 | 0.00 | ||
| 20260901173532 | 69 | 315 | 1.0 | 2.0 | 0.00 | 0.00 | 0.00 | ||
| 20260901173414 | 69 | 315 | 0.0 | 2.0 | 0.00 | 0.00 | 0.00 | ||
| 20260901173131 | 69 | 315 | 0.0 | 2.0 | 0.00 | 0.00 | 0.00 | ||
| 20260901172729 | 70 | 315 | 1.0 | 2.0 | 0.00 | 0.00 | 0.00 | ||
| 20260901171918 | 70 | 315 | 0.0 | 2.0 | 0.00 | 0.00 | 0.00 | ||
| 20260901171517 | 71 | 293 | 2.0 | 4.0 | 0.00 | 0.00 | 0.00 | ||
| 20260901171116 | 71 | 292 | 1.0 | 2.0 | 0.00 | 0.00 | 0.00 | ||
| 20260901170714 | 71 | 292 | 1.0 | 3.0 | 0.00 | 0.00 | 0.00 | ||
| 20260901170312 | 71 | 295 | 2.0 | 3.0 | 0.00 | 0.00 | 0.00 | ||
| 20260901165911 | 71 | 305 | 3.0 | 5.0 | 0.00 | 0.00 | 0.00 | ||
| 20260901165510 | 72 | 292 | 3.0 | 6.0 | 0.00 | 0.00 | 0.00 | ||
| 20260901165109 | 73 | 292 | 3.0 | 4.0 | 0.00 | 0.00 | 0.00 | ||
| 20260901164706 | 74 | 292 | 4.0 | 5.0 | 0.00 | 0.00 | 0.00 | ||
| 20260901164258 | 75 | 307 | 4.0 | 6.0 | 0.00 | 0.00 | 0.00 | ||
| 20260901163856 | 77 | 315 | 2.0 | 4.0 | 0.00 | 0.00 | 0.00 | ||
| 20260901163455 | 76 | 298 | 3.0 | 6.0 | 0.00 | 0.00 | 0.00 | ||
| 20260901163053 | 77 | 295 | 5.0 | 7.0 | 0.00 | 0.00 | 0.00 | ||
| 20260901162651 | 77 | 301 | 4.0 | 7.0 | 0.00 | 0.00 | 0.00 | ||
| 20260901162250 | 77 | 315 | 2.0 | 4.0 | 0.00 | 0.00 | 0.00 | ||
| 20260901161848 | 75 | 286 | 4.0 | 5.0 | 0.00 | 0.00 | 0.00 | ||
| 20260901161447 | 74 | 273 | 5.0 | 8.0 | 0.00 | 0.00 | 0.00 | ||
| 20260901161045 | 74 | 292 | 5.0 | 8.0 | 0.00 | 0.00 | 0.00 | ||
| 20260901160643 | 74 | 292 | 4.0 | 7.0 | 0.00 | 0.00 | 0.00 | ||
| 20260901160235 | 73 | 301 | 3.0 | 6.0 | 0.00 | 0.00 | 0.00 | ||
| 20260901155833 | 73 | 287 | 4.0 | 6.0 | 0.00 | 0.00 | 0.00 | ||
| 20260901155431 | 73 | 292 | 3.0 | 4.0 | 0.00 | 0.00 | 0.00 | ||
| 20260901155030 | 73 | 277 | 2.0 | 3.0 | 0.00 | 0.00 | 0.00 | ||
| 20260901154628 | 72 | 289 | 3.0 | 6.0 | 0.00 | 0.00 | 0.00 | ||
| 20260901154228 | 73 | 290 | 3.0 | 5.0 | 0.00 | 0.00 | 0.00 | ||
| 20260901153824 | 72 | 304 | 2.0 | 5.0 | 0.00 | 0.00 | 0.00 | ||
| 20260901153423 | 73 | 298 | 5.0 | 8.0 | 0.00 | 0.00 | 0.00 | ||
| 20260901153022 | 73 | 297 | 4.0 | 6.0 | 0.00 | 0.00 | 0.00 | ||
| 20260901152621 | 73 | 278 | 4.0 | 6.0 | 0.00 | 0.00 | 0.00 | ||
| 20260901152211 | 73 | 302 | 3.0 | 5.0 | 0.00 | 0.00 | 0.00 | ||
| 20260901151810 | 72 | 296 | 5.0 | 9.0 | 0.00 | 0.00 | 0.00 | ||
| 20260901151409 | 72 | 297 | 5.0 | 8.0 | 0.00 | 0.00 | 0.00 | ||
| 20260901151008 | 72 | 301 | 5.0 | 9.0 | 0.00 | 0.00 | 0.00 | ||
| 20260901150606 | 73 | 291 | 5.0 | 8.0 | 0.00 | 0.00 | 0.00 | ||
| 20260901150204 | 72 | 314 | 3.0 | 5.0 | 0.00 | 0.00 | 0.00 | ||
| 20260901145802 | 72 | 308 | 4.0 | 6.0 | 0.00 | 0.00 | 0.00 | ||
| 20260901145401 | 72 | 295 | 5.0 | 9.0 | 0.00 | 0.00 | 0.00 | ||
| 20260901145000 | 73 | 298 | 3.0 | 7.0 | 0.00 | 0.00 | 0.00 | ||
| 20260901144557 | 73 | 296 | 3.0 | 4.0 | 0.00 | 0.00 | 0.00 | ||
| 20260901144149 | 72 | 313 | 5.0 | 8.0 | 0.00 | 0.00 | 0.00 | ||
| 20260901143747 | 73 | 289 | 3.0 | 5.0 | 0.00 | 0.00 | 0.00 | ||
| 20260901143346 | 73 | 279 | 2.0 | 4.0 | 0.00 | 0.00 | 0.00 | ||
| 20260901142944 | 73 | 289 | 5.0 | 9.0 | 0.00 | 0.00 | 0.00 | ||
| 20260901142542 | 73 | 309 | 4.0 | 6.0 | 0.00 | 0.00 | 0.00 | ||
| 20260901142141 | 73 | 302 | 5.0 | 7.0 | 0.00 | 0.00 | 0.00 | ||
| 20260901141739 | 73 | 298 | 4.0 | 6.0 | 0.00 | 0.00 | 0.00 | ||
| 20260901141337 | 73 | 292 | 4.0 | 8.0 | 0.00 | 0.00 | 0.00 | ||
| 20260901140936 | 73 | 303 | 3.0 | 5.0 | 0.00 | 0.00 | 0.00 | ||
| 20260901140534 | 73 | 294 | 5.0 | 9.0 | 0.00 | 0.00 | 0.00 | ||
| 20260901140126 | 73 | 298 | 4.0 | 7.0 | 0.00 | 0.00 | 0.00 | ||
| 20260901135725 | 74 | 270 | 2.0 | 5.0 | 0.00 | 0.00 | 0.00 | ||
| 20260901135322 | 73 | 298 | 5.0 | 9.0 | 0.00 | 0.00 | 0.00 | ||
| 20260901134922 | 73 | 306 | 4.0 | 7.0 | 0.00 | 0.00 | 0.00 | ||
| 20260901134520 | 74 | 255 | 8.0 | 11.0 | 0.00 | 0.00 | 0.00 | ||
| 20260901134119 | 75 | 277 | 4.0 | 6.0 | 0.00 | 0.00 | 0.00 | ||
| 20260901133716 | 75 | 266 | 5.0 | 10.0 | 0.00 | 0.00 | 0.00 | ||
| 20260901133315 | 74 | 279 | 6.0 | 8.0 | 0.00 | 0.00 | 0.00 | ||
| 20260901132914 | 75 | 256 | 5.0 | 10.0 | 0.00 | 0.00 | 0.00 | ||
| 20260901132512 | 74 | 257 | 7.0 | 10.0 | 0.00 | 0.00 | 0.00 | ||
| 20260901132103 | 75 | 277 | 7.0 | 9.0 | 0.00 | 0.00 | 0.00 | ||
| 20260901131700 | 75 | 256 | 8.0 | 13.0 | 0.00 | 0.00 | 0.00 | ||
| 20260901131259 | 75 | 268 | 10.0 | 13.0 | 0.00 | 0.00 | 0.00 | ||
| 20260901130858 | 76 | 250 | 7.0 | 10.0 | 0.00 | 0.00 | 0.00 | ||
| 20260901130454 | 75 | 261 | 8.0 | 12.0 | 0.00 | 0.00 | 0.00 | ||
| 20260901130053 | 76 | 277 | 4.0 | 9.0 | 0.00 | 0.00 | 0.00 | ||
| 20260901125651 | 75 | 231 | 6.0 | 9.0 | 0.00 | 0.00 | 0.00 | ||
| 20260901125250 | 75 | 261 | 9.0 | 12.0 | 0.00 | 0.00 | 0.00 | ||
| 20260901124849 | 76 | 243 | 7.0 | 11.0 | 0.00 | 0.00 | 0.00 | ||
| 20260901124446 | 76 | 261 | 11.0 | 15.0 | 0.00 | 0.00 | 0.00 | ||
| 20260901124038 | 76 | 256 | 8.0 | 14.0 | 0.00 | 0.00 | 0.00 | ||
| 20260901123636 | 76 | 267 | 8.0 | 12.0 | 0.00 | 0.00 | 0.00 | ||
| 20260901123235 | 76 | 240 | 9.0 | 14.0 | 0.00 | 0.00 | 0.00 | ||
| 20260901122431 | 75 | 250 | 9.0 | 15.0 | 0.00 | 0.00 | 0.00 | ||
| 20260901121628 | 77 | 238 | 8.0 | 15.0 | 0.00 | 0.00 | 0.00 | ||
| 20260901121226 | 77 | 241 | 8.0 | 14.0 | 0.00 | 0.00 | 0.00 | ||
| 20260901120825 | 75 | 244 | 7.0 | 11.0 | 0.00 | 0.00 | 0.00 | ||
| 20260901120423 | 75 | 231 | 8.0 | 15.0 | 0.00 | 0.00 | 0.00 | ||
| 20260901120015 | 75 | 218 | 9.0 | 14.0 | 0.00 | 0.00 | 0.00 | ||
| 20260901115612 | 75 | 240 | 11.0 | 16.0 | 0.00 | 0.00 | 0.00 | ||
| 20260901115211 | 75 | 233 | 6.0 | 10.0 | 0.00 | 0.00 | 0.00 | ||
| 20260901114810 | 75 | 250 | 9.0 | 15.0 | 0.00 | 0.00 | 0.00 | ||
| 20260901114409 | 76 | 233 | 10.0 | 12.0 | 0.00 | 0.00 | 0.00 | ||
| 20260901114008 | 75 | 257 | 9.0 | 15.0 | 0.00 | 0.00 | 0.00 | ||
| 20260901113605 | 74 | 263 | 10.0 | 16.0 | 0.00 | 0.00 | 0.00 | ||
| 20260901113204 | 76 | 254 | 9.0 | 13.0 | 0.00 | 0.00 | 0.00 | ||
| 20260901112803 | 76 | 220 | 9.0 | 12.0 | 0.00 | 0.00 | 0.00 | ||
| 20260901112401 | 76 | 235 | 6.0 | 10.0 | 0.00 | 0.00 | 0.00 | ||
| 20260901111952 | 76 | 242 | 5.0 | 12.0 | 0.00 | 0.00 | 0.00 | ||
| 20260901111550 | 74 | 238 | 7.0 | 11.0 | 0.00 | 0.00 | 0.00 | ||
| 20260901111149 | 74 | 237 | 8.0 | 11.0 | 0.00 | 0.00 | 0.00 | ||
| 20260901110748 | 75 | 218 | 10.0 | 20.0 | 0.00 | 0.00 | 0.00 | ||
| 20260901110345 | 74 | 223 | 8.0 | 13.0 | 0.00 | 0.00 | 0.00 | ||
| 20260901105944 | 73 | 260 | 6.0 | 12.0 | 0.00 | 0.00 | 0.00 | ||
| 20260901105542 | 73 | 249 | 7.0 | 10.0 | 0.00 | 0.00 | 0.00 | ||
| 20260901105141 | 73 | 251 | 5.0 | 10.0 | 0.00 | 0.00 | 0.00 | ||
| 20260901104739 | 73 | 247 | 10.0 | 15.0 | 0.00 | 0.00 | 0.00 | ||
| 20260901104337 | 74 | 244 | 9.0 | 14.0 | 0.00 | 0.00 | 0.00 | ||
| 20260901103929 | 74 | 258 | 8.0 | 12.0 | 0.00 | 0.00 | 0.00 | ||
| 20260901103527 | 74 | 223 | 6.0 | 14.0 | 0.00 | 0.00 | 0.00 | ||
| 20260901103126 | 72 | 258 | 8.0 | 12.0 | 0.00 | 0.00 | 0.00 | ||
| 20260901102724 | 73 | 275 | 9.0 | 13.0 | 0.00 | 0.00 | 0.00 | ||
| 20260901102322 | 73 | 263 | 7.0 | 10.0 | 0.00 | 0.00 | 0.00 | ||
| 20260901101921 | 72 | 263 | 9.0 | 13.0 | 0.00 | 0.00 | 0.00 | ||
| 20260901101520 | 73 | 242 | 8.0 | 13.0 | 0.00 | 0.00 | 0.00 | ||
| 20260901101117 | 74 | 271 | 9.0 | 15.0 | 0.00 | 0.00 | 0.00 | ||
| 20260901100716 | 73 | 214 | 8.0 | 15.0 | 0.00 | 0.00 | 0.00 | ||
| 20260901100315 | 73 | 232 | 7.0 | 14.0 | 0.00 | 0.00 | 0.00 | ||
| 20260901095907 | 74 | 263 | 7.0 | 13.0 | 0.00 | 0.00 | 0.00 | ||
| 20260901095504 | 74 | 243 | 7.0 | 11.0 | 0.00 | 0.00 | 0.00 | ||
| 20260901095103 | 73 | 228 | 8.0 | 13.0 | 0.00 | 0.00 | 0.00 | ||
| 20260901094702 | 72 | 278 | 8.0 | 10.0 | 0.00 | 0.00 | 0.00 | ||
| 20260901094300 | 73 | 247 | 7.0 | 11.0 | 0.00 | 0.00 | 0.00 | ||
| 20260901093858 | 73 | 248 | 8.0 | 12.0 | 0.00 | 0.00 | 0.00 | ||
| 20260901093456 | 73 | 232 | 7.0 | 12.0 | 0.00 | 0.00 | 0.00 | ||
| 20260901093055 | 72 | 254 | 6.0 | 12.0 | 0.00 | 0.00 | 0.00 | ||
| 20260901092654 | 72 | 258 | 9.0 | 13.0 | 0.00 | 0.00 | 0.00 | ||
| 20260901091843 | 72 | 241 | 6.0 | 9.0 | 0.00 | 0.00 | 0.00 | ||
| 20260901091441 | 71 | 244 | 9.0 | 11.0 | 0.00 | 0.00 | 0.00 | ||
| 20260901091040 | 72 | 219 | 4.0 | 7.0 | 0.00 | 0.00 | 0.00 | ||
| 20260901090639 | 72 | 240 | 6.0 | 9.0 | 0.00 | 0.00 | 0.00 | ||
| 20260901090236 | 71 | 266 | 5.0 | 7.0 | 0.00 | 0.00 | 0.00 | ||
| 20260901085835 | 72 | 267 | 7.0 | 9.0 | 0.00 | 0.00 | 0.00 | ||
| 20260901085433 | 72 | 241 | 7.0 | 11.0 | 0.00 | 0.00 | 0.00 | ||
| 20260901085033 | 71 | 260 | 9.0 | 11.0 | 0.00 | 0.00 | 0.00 | ||
| 20260901084630 | 72 | 222 | 8.0 | 15.0 | 0.00 | 0.00 | 0.00 | ||
| 20260901084309 | 72 | 255 | 8.0 | 12.0 | 0.00 | 0.00 | 0.00 | ||
| 20260901084229 | 72 | 255 | 8.0 | 12.0 | 0.00 | 0.00 | 0.00 | ||
| 20260901083821 | 71 | 248 | 7.0 | 11.0 | 0.00 | 0.00 | 0.00 | ||
| 20260901083419 | 71 | 272 | 7.0 | 10.0 | 0.00 | 0.00 | 0.00 | ||
| 20260901083017 | 70 | 281 | 7.0 | 9.0 | 0.00 | 0.00 | 0.00 | ||
| 20260901082616 | 70 | 295 | 8.0 | 12.0 | 0.00 | 0.00 | 0.00 | ||
| 20260901082214 | 72 | 254 | 5.0 | 10.0 | 0.00 | 0.00 | 0.00 | ||
| 20260901081813 | 72 | 229 | 6.0 | 12.0 | 0.00 | 0.00 | 0.00 | ||
| 20260901081411 | 72 | 211 | 5.0 | 10.0 | 0.00 | 0.00 | 0.00 | ||
| 20260901081009 | 72 | 246 | 5.0 | 9.0 | 0.00 | 0.00 | 0.00 | ||
| 20260901080608 | 71 | 258 | 6.0 | 9.0 | 0.00 | 0.00 | 0.00 | ||
| 20260901080206 | 71 | 249 | 6.0 | 10.0 | 0.00 | 0.00 | 0.00 | ||
| 20260901075758 | 71 | 234 | 8.0 | 11.0 | 0.00 | 0.00 | 0.00 | ||
| 20260901075545 | 70 | 250 | 7.0 | 9.0 | 0.00 | 0.00 | 0.00 | ||
| 20260901075355 | 70 | 249 | 8.0 | 11.0 | 0.00 | 0.00 | 0.00 | ||
| 20260901074954 | 70 | 250 | 7.0 | 9.0 | 0.00 | 0.00 | 0.00 | ||
| 20260901074553 | 70 | 266 | 8.0 | 11.0 | 0.00 | 0.00 | 0.00 | ||
| 20260901074151 | 70 | 255 | 10.0 | 14.0 | 0.00 | 0.00 | 0.00 | ||
| 20260901073749 | 69 | 270 | 10.0 | 15.0 | 0.00 | 0.00 | 0.00 | ||
| 20260901073347 | 69 | 274 | 9.0 | 12.0 | 0.00 | 0.00 | 0.00 | ||
| 20260901072946 | 69 | 268 | 9.0 | 13.0 | 0.00 | 0.00 | 0.00 | ||
| 20260901072545 | 70 | 262 | 6.0 | 14.0 | 0.00 | 0.00 | 0.00 | ||
| 20260901072142 | 70 | 244 | 6.0 | 13.0 | 0.00 | 0.00 | 0.00 | ||
| 20260901071735 | 69 | 229 | 11.0 | 17.0 | 0.00 | 0.00 | 0.00 | ||
| 20260901071333 | 70 | 237 | 9.0 | 12.0 | 0.00 | 0.00 | 0.00 | ||
| 20260901070931 | 69 | 252 | 9.0 | 13.0 | 0.00 | 0.00 | 0.00 | ||
| 20260901070531 | 70 | 241 | 9.0 | 12.0 | 0.00 | 0.00 | 0.00 | ||
| 20260901070128 | 69 | 229 | 8.0 | 13.0 | 0.00 | 0.00 | 0.00 | ||
| 20260901065726 | 70 | 231 | 9.0 | 12.0 | 0.00 | 0.00 | 0.00 | ||
| 20260901065324 | 71 | 239 | 6.0 | 9.0 | 0.00 | 0.00 | 0.00 | ||
| 20260901064922 | 71 | 248 | 6.0 | 8.0 | 0.00 | 0.00 | 0.00 | ||
| 20260901064520 | 71 | 264 | 7.0 | 11.0 | 0.00 | 0.00 | 0.00 | ||
| 20260901064119 | 71 | 246 | 8.0 | 12.0 | 0.00 | 0.00 | 0.00 | ||
| 20260901063711 | 70 | 240 | 10.0 | 14.0 | 0.00 | 0.00 | 0.00 | ||
| 20260901063309 | 69 | 244 | 9.0 | 12.0 | 0.00 | 0.00 | 0.00 | ||
| 20260901062907 | 69 | 254 | 8.0 | 15.0 | 0.00 | 0.00 | 0.00 | ||
| 20260901062506 | 69 | 236 | 8.0 | 12.0 | 0.00 | 0.00 | 0.00 | ||
| 20260901062104 | 69 | 245 | 9.0 | 14.0 | 0.00 | 0.00 | 0.00 | ||
| 20260901061703 | 69 | 238 | 9.0 | 14.0 | 0.00 | 0.00 | 0.00 | ||
| 20260901061300 | 69 | 249 | 8.0 | 13.0 | 0.00 | 0.00 | 0.00 | ||
| 20260901060859 | 69 | 257 | 11.0 | 17.0 | 0.00 | 0.00 | 0.00 | ||
| 20260901060458 | 70 | 246 | 7.0 | 11.0 | 0.00 | 0.00 | 0.00 | ||
| 20260901060056 | 70 | 253 | 5.0 | 9.0 | 0.00 | 0.00 | 0.00 | ||
| 20260901055648 | 69 | 250 | 8.0 | 11.0 | 0.00 | 0.00 | 0.00 | ||
| 20260901055245 | 69 | 249 | 9.0 | 13.0 | 0.00 | 0.00 | 0.00 | ||
| 20260901054844 | 69 | 248 | 9.0 | 14.0 | 0.00 | 0.00 | 0.00 | ||
| 20260901054443 | 69 | 251 | 6.0 | 10.0 | 0.00 | 0.00 | 0.00 | ||
| 20260901054041 | 69 | 247 | 6.0 | 10.0 | 0.00 | 0.00 | 0.00 | ||
| 20260901053639 | 69 | 232 | 8.0 | 13.0 | 0.00 | 0.00 | 0.00 | ||
| 20260901053237 | 69 | 254 | 8.0 | 11.0 | 0.00 | 0.00 | 0.00 | ||
| 20260901052836 | 70 | 243 | 5.0 | 9.0 | 0.00 | 0.00 | 0.00 | ||
| 20260901052435 | 70 | 237 | 5.0 | 10.0 | 0.00 | 0.00 | 0.00 | ||
| 20260901052032 | 69 | 234 | 5.0 | 8.0 | 0.00 | 0.00 | 0.00 | ||
| 20260901051624 | 69 | 234 | 4.0 | 7.0 | 0.00 | 0.00 | 0.00 | ||
| 20260901051223 | 70 | 239 | 4.0 | 6.0 | 0.00 | 0.00 | 0.00 | ||
| 20260901050822 | 69 | 250 | 4.0 | 6.0 | 0.00 | 0.00 | 0.00 | ||
| 20260901050419 | 69 | 253 | 6.0 | 10.0 | 0.00 | 0.00 | 0.00 | ||
| 20260901050018 | 70 | 240 | 4.0 | 8.0 | 0.00 | 0.00 | 0.00 | ||
| 20260901045617 | 70 | 239 | 5.0 | 8.0 | 0.00 | 0.00 | 0.00 | ||
| 20260901045215 | 70 | 223 | 3.0 | 5.0 | 0.00 | 0.00 | 0.00 | ||
| 20260901044814 | 69 | 222 | 6.0 | 9.0 | 0.00 | 0.00 | 0.00 | ||
| 20260901044412 | 69 | 218 | 4.0 | 7.0 | 0.00 | 0.00 | 0.00 | ||
| 20260901044010 | 68 | 220 | 5.0 | 9.0 | 0.00 | 0.00 | 0.00 | ||
| 20260901043602 | 68 | 222 | 5.0 | 9.0 | 0.00 | 0.00 | 0.00 | ||
| 20260901043200 | 68 | 216 | 6.0 | 11.0 | 0.00 | 0.00 | 0.00 | ||
| 20260901042758 | 68 | 215 | 6.0 | 10.0 | 0.00 | 0.00 | 0.00 | ||
| 20260901042357 | 68 | 222 | 5.0 | 8.0 | 0.00 | 0.00 | 0.00 | ||
| 20260901041955 | 68 | 222 | 5.0 | 9.0 | 0.00 | 0.00 | 0.00 | ||
| 20260901041554 | 69 | 220 | 4.0 | 7.0 | 0.00 | 0.00 | 0.00 | ||
| 20260901041151 | 68 | 218 | 4.0 | 8.0 | 0.00 | 0.00 | 0.00 | ||
| 20260901040750 | 68 | 219 | 6.0 | 11.0 | 0.00 | 0.00 | 0.00 | ||
| 20260901040349 | 68 | 220 | 5.0 | 8.0 | 0.00 | 0.00 | 0.00 | ||
| 20260901035947 | 68 | 217 | 4.0 | 8.0 | 0.00 | 0.00 | 0.00 | ||
| 20260901035538 | 69 | 225 | 5.0 | 7.0 | 0.00 | 0.00 | 0.00 | ||
| 20260901035136 | 69 | 221 | 5.0 | 9.0 | 0.00 | 0.00 | 0.00 | ||
| 20260901034735 | 68 | 216 | 5.0 | 9.0 | 0.00 | 0.00 | 0.00 | ||
| 20260901034334 | 68 | 222 | 6.0 | 10.0 | 0.00 | 0.00 | 0.00 | ||
| 20260901033531 | 68 | 216 | 6.0 | 11.0 | 0.00 | 0.00 | 0.00 | ||
| 20260901033129 | 68 | 206 | 7.0 | 10.0 | 0.00 | 0.00 | 0.00 | ||
| 20260901032728 | 69 | 208 | 7.0 | 11.0 | 0.00 | 0.00 | 0.00 | ||
| 20260901032327 | 69 | 209 | 6.0 | 10.0 | 0.00 | 0.00 | 0.00 | ||
| 20260901031924 | 68 | 213 | 5.0 | 8.0 | 0.00 | 0.00 | 0.00 | ||
| 20260901031516 | 68 | 203 | 5.0 | 9.0 | 0.00 | 0.00 | 0.00 | ||
| 20260901031114 | 68 | 202 | 5.0 | 8.0 | 0.00 | 0.00 | 0.00 | ||
| 20260901030713 | 68 | 202 | 4.0 | 7.0 | 0.00 | 0.00 | 0.00 | ||
| 20260901030311 | 65 | 202 | 3.0 | 4.0 | 0.00 | 0.00 | 0.00 | ||
| 20260901025909 | 66 | 202 | 3.0 | 5.0 | 0.00 | 0.00 | 0.00 | ||
| 20260901025508 | 66 | 202 | 3.0 | 4.0 | 0.00 | 0.00 | 0.00 | ||
| 20260901025106 | 67 | 202 | 2.0 | 3.0 | 0.00 | 0.00 | 0.00 | ||
| 20260901024704 | 68 | 202 | 2.0 | 4.0 | 0.00 | 0.00 | 0.00 | ||
| 20260901024303 | 66 | 202 | 3.0 | 5.0 | 0.00 | 0.00 | 0.00 | ||
| 20260901023901 | 64 | 202 | 2.0 | 2.0 | 0.00 | 0.00 | 0.00 | ||
| 20260901023453 | 65 | 202 | 1.0 | 2.0 | 0.00 | 0.00 | 0.00 | ||
| 20260901023051 | 66 | 202 | 2.0 | 3.0 | 0.00 | 0.00 | 0.00 | ||
| 20260901022649 | 67 | 202 | 2.0 | 2.0 | 0.00 | 0.00 | 0.00 | ||
| 20260901022248 | 67 | 202 | 1.0 | 2.0 | 0.00 | 0.00 | 0.00 | ||
| 20260901021846 | 68 | 202 | 2.0 | 3.0 | 0.00 | 0.00 | 0.00 | ||
| 20260901021445 | 69 | 204 | 2.0 | 3.0 | 0.00 | 0.00 | 0.00 | ||
| 20260901021042 | 70 | 202 | 2.0 | 4.0 | 0.00 | 0.00 | 0.00 | ||
| 20260901020641 | 68 | 202 | 2.0 | 3.0 | 0.00 | 0.00 | 0.00 | ||
| 20260901020240 | 66 | 202 | 1.0 | 2.0 | 0.00 | 0.00 | 0.00 | ||
| 20260901015839 | 67 | 202 | 2.0 | 3.0 | 0.00 | 0.00 | 0.00 | ||
| 20260901015429 | 70 | 202 | 3.0 | 4.0 | 0.00 | 0.00 | 0.00 | ||
| 20260901015028 | 70 | 202 | 3.0 | 5.0 | 0.00 | 0.00 | 0.00 | ||
| 20260901014627 | 70 | 202 | 4.0 | 5.0 | 0.00 | 0.00 | 0.00 | ||
| 20260901014226 | 71 | 206 | 4.0 | 6.0 | 0.00 | 0.00 | 0.00 | ||
| 20260901013823 | 71 | 225 | 4.0 | 7.0 | 0.00 | 0.00 | 0.00 | ||
| 20260901013422 | 71 | 234 | 4.0 | 6.0 | 0.00 | 0.00 | 0.00 | ||
| 20260901013020 | 71 | 225 | 4.0 | 6.0 | 0.00 | 0.00 | 0.00 | ||
| 20260901012619 | 71 | 228 | 4.0 | 5.0 | 0.00 | 0.00 | 0.00 | ||
| 20260901012218 | 70 | 227 | 4.0 | 7.0 | 0.00 | 0.00 | 0.00 | ||
| 20260901011815 | 70 | 225 | 3.0 | 4.0 | 0.00 | 0.00 | 0.00 | ||
| 20260901011406 | 71 | 223 | 3.0 | 6.0 | 0.00 | 0.00 | 0.00 | ||
| 20260901011005 | 71 | 218 | 4.0 | 7.0 | 0.00 | 0.00 | 0.00 | ||
| 20260901010604 | 71 | 182 | 3.0 | 5.0 | 0.00 | 0.00 | 0.00 | ||
| 20260901010201 | 70 | 202 | 3.0 | 4.0 | 0.00 | 0.00 | 0.00 | ||
| 20260901005800 | 71 | 195 | 4.0 | 7.0 | 0.00 | 0.00 | 0.00 | ||
| 20260901005359 | 71 | 202 | 5.0 | 6.0 | 0.00 | 0.00 | 0.00 | ||
| 20260901004957 | 71 | 202 | 4.0 | 6.0 | 0.00 | 0.00 | 0.00 | ||
| 20260901004555 | 71 | 202 | 4.0 | 6.0 | 0.00 | 0.00 | 0.00 | ||
| 20260901004154 | 70 | 187 | 4.0 | 6.0 | 0.00 | 0.00 | 0.00 | ||
| 20260901003758 | 69 | 186 | 3.0 | 5.0 | 0.00 | 0.00 | 0.00 | ||
| 20260901003752 | 69 | 186 | 3.0 | 5.0 | 0.00 | 0.00 | 0.00 | ||
| 20260901003344 | 69 | 180 | 3.0 | 4.0 | 0.00 | 0.00 | 0.00 | ||
| 20260901002941 | 69 | 180 | 3.0 | 5.0 | 0.00 | 0.00 | 0.00 | ||
| 20260901002540 | 70 | 180 | 3.0 | 5.0 | 0.00 | 0.00 | 0.00 | ||
| 20260901002139 | 70 | 180 | 3.0 | 5.0 | 0.00 | 0.00 | 0.00 | ||
| 20260901001737 | 69 | 180 | 3.0 | 4.0 | 0.00 | 0.00 | 0.00 | ||
| 20260901001336 | 68 | 180 | 2.0 | 4.0 | 0.00 | 0.00 | 0.00 | ||
| 20260901000933 | 69 | 193 | 2.0 | 4.0 | 0.00 | 0.00 | 0.00 | ||
| 20260901000532 | 69 | 180 | 2.0 | 4.0 | 0.00 | 0.00 | 0.00 | ||
| 20260901000131 | 69 | 169 | 4.0 | 5.0 | 0.00 | 0.00 | 0.00 | ||
| 20260831235729 | 69 | 157 | 3.0 | 5.0 | 0.00 | 0.00 | 0.00 | ||
| 20260831235320 | 70 | 180 | 4.0 | 6.0 | 0.00 | 0.00 | 0.00 | ||
| 20260831234918 | 69 | 180 | 3.0 | 5.0 | 0.00 | 0.00 | 0.00 | ||
| 20260831234517 | 69 | 202 | 3.0 | 4.0 | 0.00 | 0.00 | 0.00 | ||
| 20260831234115 | 69 | 202 | 3.0 | 4.0 | 0.00 | 0.00 | 0.00 | ||
| 20260831233712 | 70 | 202 | 2.0 | 5.0 | 0.00 | 0.00 | 0.00 | ||
| 20260831233311 | 71 | 202 | 3.0 | 6.0 | 0.00 | 0.00 | 0.00 | ||
| 20260831232908 | 71 | 202 | 3.0 | 5.0 | 0.00 | 0.00 | 0.00 | ||
| 20260831232507 | 71 | 202 | 3.0 | 4.0 | 0.00 | 0.00 | 0.00 | ||
| 20260831232105 | 70 | 202 | 3.0 | 5.0 | 0.00 | 0.00 | 0.00 | ||
| 20260831231703 | 69 | 201 | 3.0 | 4.0 | 0.00 | 0.00 | 0.00 | ||
| 20260831231255 | 68 | 180 | 2.0 | 3.0 | 0.00 | 0.00 | 0.00 | ||
| 20260831230854 | 68 | 202 | 2.0 | 3.0 | 0.00 | 0.00 | 0.00 | ||
| 20260831230453 | 68 | 202 | 3.0 | 4.0 | 0.00 | 0.00 | 0.00 | ||
| 20260831230050 | 68 | 225 | 3.0 | 4.0 | 0.00 | 0.00 | 0.00 | ||
| 20260831225649 | 69 | 225 | 2.0 | 4.0 | 0.00 | 0.00 | 0.00 | ||
| 20260831225247 | 70 | 225 | 1.0 | 3.0 | 0.00 | 0.00 | 0.00 | ||
| 20260831224845 | 71 | 225 | 2.0 | 4.0 | 0.00 | 0.00 | 0.00 | ||
| 20260831224443 | 69 | 202 | 2.0 | 3.0 | 0.00 | 0.00 | 0.00 | ||
| 20260831224042 | 70 | 202 | 1.0 | 2.0 | 0.00 | 0.00 | 0.00 | ||
| 20260831223640 | 67 | 202 | 0.0 | 0.0 | 0.00 | 0.00 | 0.00 | ||
| 20260831223232 | 67 | 202 | 0.0 | 0.0 | 0.00 | 0.00 | 0.00 | ||
| 20260831222829 | 67 | 202 | 0.0 | 0.0 | 0.00 | 0.00 | 0.00 | ||
| 20260831222428 | 67 | 202 | 0.0 | 0.0 | 0.00 | 0.00 | 0.00 |